Location: AUGO Fort Vermillion
(58.3775°N, 116.0058°W)
Time: 07:49:59
(UTC-07:00)

OTV 5 (USA 277) - Visible Passes

Search period start: 10 December 2018 00:00
Search period end: 20 December 2018 00:00
Orbit: 341 x 347 km, 54.5° (Epoch: 09 December)

Date Brightness Start Highest point End Pass type
(mag) Time Alt. Az. Time Alt. Az. Time Alt. Az.
10 Dec ? 05:46:10 13° SE 05:46:10 13° SE 05:46:32 10° SE visible
10 Dec ? 07:17:36 13° SW 07:18:12 14° SSW 07:19:44 10° S visible
11 Dec ? 06:09:04 14° SSE 06:09:04 14° SSE 06:09:40 10° SSE visible
12 Dec ? 06:32:02 11° S 06:32:02 11° S 06:32:15 10° S visible
